User: anonymous   Login
Location: Cypress Hills Dark-Sky Preserve - CHICO
(49.6176°N, 110.2634°W)
Time: 12:16:49
(UTC-06:00)
Language:

SPOT 5 - Orbit

View from above orbital plane
View from above orbital plane
View from above satellite
View from above satellite

Ground track
Ground track

The orbit data is extracted from the following two-line orbital elements,

1 27421U 02021A   15118.49782785  .00000285  00000-0  15102-3 0  9994
2 27421 098.5161 175.9022 0001105 099.3388 013.1520 14.20893324673072
Epoch (UTC): 28 April 2015 11:56:52
Eccentricity: 0.0001105
inclination: 98.5161°
perigee height: 821 km
apogee height: 823 km
right ascension of ascending node: 175.9022°
argument of perigee: 99.3388°
revolutions per day: 14.20893324
mean anomaly at epoch: 13.1520°
orbit number at epoch: 67307

The dashed part of the orbit path shows where the satellite is in the earth's shadow,  

DLR